North Adams, MA

9:33 PM EDT on August 19, 2017 (GMT -0400)
Harriman And West

Weather History for KAQW - October, 2013

Change the Weather History Date:

Monday, October 21, 2013

  Actual Average Record
Temperature  
Mean Temperature 50 °F -  
Max Temperature 64 °F 55 °F 73 °F (2000)
Min Temperature 35 °F 34 °F 26 °F (2002)
Degree Days  
Heating Degree Days 16    
Moisture  
Dew Point 34 °F    
Average Humidity 57    
Maximum Humidity 92    
Minimum Humidity 30    
Precipitation  
Precipitation 0.00 in - - ()
Sea Level Pressure  
Sea Level Pressure 30.04 in    
Wind  
Wind Speed 3 mph (SE)    
Max Wind Speed 9 mph    
Max Gust Speed -    
Visibility 10 miles    
Events      
Averages and records for this station are not official NWS values.
T = Trace of Precipitation, MM = Missing Value Source: NWS Daily Summary

Daily Weather History Graph

Daily Weather History Graph

Search for Another Location

Airport or City:

Trip Planner

Search our weather history database for the weather conditions in past years. The results will help you decide how hot, cold, wet, or windy it might be!

Date:

Astronomy

Oct. 21, 2013 Rise Set
Actual Time 7:13 AM EDT 6:00 PM EDT
Civil Twilight 6:44 AM EDT 6:29 PM EDT
Nautical Twilight 6:11 AM EDT 7:02 PM EDT
Astronomical Twilight 5:38 AM EDT 7:34 PM EDT
Moon 7:47 PM EDT (10/21) 9:48 AM EDT (10/21)
Length of Visible Light 11h 44m
Length of Day
10h 47m
Waning Gibbous, 93% of the Moon is Illuminated
Oct 21
Waning Gibbous
Oct 26
Last Quarter
Nov 3
New
Nov 10
First Quarter
Nov 17
Full

Hourly Weather History & Observations

Time (EDT) Temp. Windchill Dew Point Humidity Pressure Visibility Wind Dir Wind Speed Gust Speed Precip Events Conditions
12:52 AM 43.0 °F - 36.0 °F 76% 30.04 in 10.0 mi Calm Calm - N/A   Overcast
1:52 AM 42.1 °F - 37.0 °F 82% 30.05 in 10.0 mi Calm Calm - N/A   Overcast
2:52 AM 39.9 °F - 35.1 °F 83% 30.05 in 10.0 mi Calm Calm - N/A   Clear
3:52 AM 37.0 °F - 34.0 °F 89% 30.07 in 10.0 mi Calm Calm - N/A   Partly Cloudy
4:52 AM 35.1 °F - 32.0 °F 89% 30.08 in 10.0 mi Calm Calm - N/A   Clear
5:52 AM 35.1 °F - 33.1 °F 92% 30.09 in 10.0 mi Calm Calm - N/A   Scattered Clouds
6:52 AM 39.0 °F 36.8 °F 34.0 °F 82% 30.09 in 10.0 mi ENE 3.5 mph - N/A   Overcast
7:52 AM 39.0 °F 36.8 °F 36.0 °F 89% 30.12 in 10.0 mi East 3.5 mph - N/A   Mostly Cloudy
8:52 AM 44.1 °F 40.1 °F 34.0 °F 68% 30.12 in 10.0 mi ESE 6.9 mph - N/A   Mostly Cloudy
9:52 AM 48.9 °F - 35.1 °F 59% 30.12 in 10.0 mi ESE 8.1 mph - N/A   Clear
10:52 AM 54.0 °F - 35.1 °F 49% 30.10 in 10.0 mi ESE 4.6 mph - N/A   Clear
11:52 AM 60.1 °F - 33.1 °F 36% 30.08 in 10.0 mi Variable 6.9 mph - N/A   Clear
12:52 PM 63.0 °F - 34.0 °F 34% 30.05 in 10.0 mi West 9.2 mph - N/A   Clear
1:52 PM 64.0 °F - 32.0 °F 30% 30.02 in 10.0 mi WSW 8.1 mph - N/A   Clear
2:52 PM 64.9 °F - 33.1 °F 31% 30.00 in 10.0 mi SW 9.2 mph - N/A   Clear
3:52 PM 64.0 °F - 32.0 °F 30% 30.00 in 10.0 mi Variable 6.9 mph - N/A   Clear
4:52 PM 63.0 °F - 32.0 °F 31% 29.99 in 10.0 mi WSW 6.9 mph - N/A   Clear
5:52 PM 59.0 °F - 32.0 °F 36% 30.00 in 10.0 mi SSW 8.1 mph - N/A   Clear
6:52 PM 52.0 °F - 34.0 °F 50% 30.00 in 10.0 mi Calm Calm - N/A   Clear
7:52 PM 53.1 °F - 34.0 °F 48% 30.00 in 10.0 mi Calm Calm - N/A   Clear
8:52 PM 52.0 °F - 33.1 °F 49% 29.99 in 10.0 mi ESE 3.5 mph - N/A   Clear
9:52 PM 54.0 °F - 32.0 °F 43% 29.98 in 10.0 mi East 9.2 mph - N/A   Clear
10:52 PM 52.0 °F - 32.0 °F 47% 29.96 in 10.0 mi Variable 3.5 mph - N/A   Clear
11:52 PM 52.0 °F - 34.0 °F 50% 29.94 in 10.0 mi Variable 4.6 mph - N/A   Clear